Terminal Aerodrome Forecast
Issued by NWS

Home | Current Version | Previous Version | Text Only | Print | Product List | Glossary On
Versions: 1 2 3 4 5 6 7 8 9 10 11 12 13 14 15 16 17
000
FTUS42 TJSJ 192100 AAA
TAFJBQ
TAF AMD
TJBQ 192106Z 1921/2018 07018G25KT P6SM VCSH SCT025 BKN040 BKN070
      TEMPO 1921/1923 VRB20G27KT 5SM SHRA SCT020 BKN035
     FM192330 09012KT P6SM FEW025 SCT040 SCT080
     FM200300 10009KT P6SM FEW030
     FM201450 07016KT P6SM FEW025 SCT050=

USA.gov is the U.S. government's official web portal to all federal, state and local government web resources and services.